UAL4643 KLAX-KSAN

Flight info

Callsign UAL4643
Flight time 0h 23m
Altitude 13000
Route LAXX1 MZB
Aircraft B738/M-SDE2E3FGHIRWXY/LB1

Departure

Time 2026-04-26 19:25
Airport Los Angeles International Airport (KLAX)

Arrival

Time 2026-04-26 19:48
Airport San Diego International Airport (KSAN)
Time Latitude Longitude Altitude Speed Heading
2026-04-26 19:07 33.94087 -118.40141 118 ft 0 kts 263°
2026-04-26 19:15 33.94087 -118.40140 118 ft 0 kts 263°
2026-04-26 19:15 33.94087 -118.40136 118 ft 2 kts 264°
2026-04-26 19:15 33.94089 -118.40118 117 ft 2 kts 263°
2026-04-26 19:15 33.94090 -118.40106 117 ft 1 kts 263°
2026-04-26 19:16 33.94095 -118.40090 117 ft 2 kts 218°
2026-04-26 19:16 33.94108 -118.40084 117 ft 0 kts 179°
2026-04-26 19:16 33.94114 -118.40085 117 ft 1 kts 169°
2026-04-26 19:16 33.94117 -118.40086 117 ft 0 kts 172°
2026-04-26 19:18 33.94106 -118.40083 117 ft 0 kts 172°
2026-04-26 19:19 33.94047 -118.40076 117 ft 10 kts 174°
2026-04-26 19:19 33.94035 -118.40074 117 ft 0 kts 175°
2026-04-26 19:20 33.94001 -118.40070 118 ft 10 kts 175°
2026-04-26 19:20 33.93950 -118.40064 118 ft 10 kts 171°
2026-04-26 19:20 33.93906 -118.40048 117 ft 0 kts 154°
2026-04-26 19:20 33.93903 -118.40045 117 ft 0 kts 153°
2026-04-26 19:21 33.93894 -118.40032 117 ft 7 kts 120°
2026-04-26 19:21 33.93882 -118.39967 116 ft 8 kts 90°
2026-04-26 19:22 33.93890 -118.39891 114 ft 11 kts 81°
2026-04-26 19:22 33.93903 -118.39774 112 ft 18 kts 83°
2026-04-26 19:22 33.93927 -118.39533 110 ft 31 kts 83°
2026-04-26 19:22 33.93955 -118.39271 107 ft 31 kts 83°
2026-04-26 19:23 33.93985 -118.38995 104 ft 35 kts 82°
2026-04-26 19:23 33.94013 -118.38694 104 ft 27 kts 84°
2026-04-26 19:23 33.94038 -118.38444 103 ft 32 kts 82°
2026-04-26 19:23 33.94068 -118.38161 101 ft 22 kts 85°
2026-04-26 19:24 33.94075 -118.38039 101 ft 13 kts 108°
2026-04-26 19:24 33.94007 -118.38005 101 ft 0 kts 208°
2026-04-26 19:24 33.93979 -118.38090 101 ft 12 kts 259°
2026-04-26 19:25 33.93921 -118.38554 107 ft 96 kts 261°
2026-04-26 19:25 33.93878 -118.39174 378 ft 123 kts 266°
2026-04-26 19:25 33.93719 -118.40823 904 ft 185 kts 261°
2026-04-26 19:25 33.93506 -118.42331 1955 ft 179 kts 261°
2026-04-26 19:26 33.93173 -118.43844 2573 ft 197 kts 240°
2026-04-26 19:26 33.92217 -118.45094 3300 ft 212 kts 223°
2026-04-26 19:26 33.90943 -118.46139 3920 ft 233 kts 213°
2026-04-26 19:26 33.89403 -118.47012 4649 ft 252 kts 200°
2026-04-26 19:27 33.87627 -118.47468 5403 ft 267 kts 193°
2026-04-26 19:27 33.85761 -118.47801 6284 ft 276 kts 192°
2026-04-26 19:27 33.83863 -118.48116 7245 ft 279 kts 192°
2026-04-26 19:27 33.81918 -118.48425 8199 ft 284 kts 192°
2026-04-26 19:28 33.79970 -118.48715 9163 ft 286 kts 192°
2026-04-26 19:28 33.77963 -118.49000 10065 ft 291 kts 192°
2026-04-26 19:28 33.75926 -118.49279 10748 ft 303 kts 192°
2026-04-26 19:28 33.73741 -118.49577 11330 ft 319 kts 191°
2026-04-26 19:29 33.71392 -118.49461 11845 ft 344 kts 172°
2026-04-26 19:29 33.69094 -118.48325 12341 ft 368 kts 150°
2026-04-26 19:29 33.67123 -118.46184 12844 ft 388 kts 130°
2026-04-26 19:29 33.65674 -118.43366 13009 ft 408 kts 117°
2026-04-26 19:30 33.64473 -118.40174 13006 ft 430 kts 113°
2026-04-26 19:30 33.63333 -118.36799 13003 ft 433 kts 112°
2026-04-26 19:30 33.62240 -118.33438 13005 ft 433 kts 111°
2026-04-26 19:30 33.61505 -118.31152 13004 ft 434 kts 111°
2026-04-26 19:31 33.60041 -118.26672 13006 ft 433 kts 115°
2026-04-26 19:31 33.58574 -118.23519 13010 ft 432 kts 125°
2026-04-26 19:31 33.56729 -118.20575 13006 ft 431 kts 131°
2026-04-26 19:31 33.54750 -118.17724 13005 ft 432 kts 131°
2026-04-26 19:32 33.52819 -118.14925 13010 ft 431 kts 131°
2026-04-26 19:32 33.50938 -118.12099 13007 ft 431 kts 129°
2026-04-26 19:32 33.49113 -118.09244 13007 ft 433 kts 128°
2026-04-26 19:32 33.47304 -118.06316 13019 ft 432 kts 128°
2026-04-26 19:33 33.45552 -118.03407 13001 ft 433 kts 127°
2026-04-26 19:33 33.43787 -118.00436 12997 ft 432 kts 127°
2026-04-26 19:33 33.42038 -117.97471 13010 ft 433 kts 127°
2026-04-26 19:33 33.40310 -117.94533 13007 ft 434 kts 127°
2026-04-26 19:34 33.27436 -117.72716 12975 ft 432 kts 127°
2026-04-26 19:34 33.10646 -117.44486 13003 ft 434 kts 127°
2026-04-26 19:34 33.08866 -117.41537 13016 ft 434 kts 127°
2026-04-26 19:34 33.07108 -117.38640 12947 ft 435 kts 127°
2026-04-26 19:35 33.05271 -117.35747 12623 ft 426 kts 132°
2026-04-26 19:35 33.03258 -117.33331 12205 ft 397 kts 145°
2026-04-26 19:35 33.00942 -117.31733 11735 ft 368 kts 161°
2026-04-26 19:35 32.98637 -117.30716 11298 ft 346 kts 166°
2026-04-26 19:36 32.96390 -117.29871 10859 ft 330 kts 167°
2026-04-26 19:36 32.94932 -117.29340 10578 ft 320 kts 167°
2026-04-26 19:36 32.93907 -117.28964 10382 ft 313 kts 167°
2026-04-26 19:37 32.92635 -117.28506 10196 ft 305 kts 163°
2026-04-26 19:37 32.90675 -117.27759 9913 ft 290 kts 161°
2026-04-26 19:37 32.88761 -117.26976 9546 ft 291 kts 161°
2026-04-26 19:38 32.86853 -117.26173 9176 ft 285 kts 160°
2026-04-26 19:38 32.84981 -117.25381 8826 ft 285 kts 160°
2026-04-26 19:38 32.83098 -117.24587 8469 ft 283 kts 160°
2026-04-26 19:38 32.81227 -117.23777 8114 ft 282 kts 157°
2026-04-26 19:39 32.79556 -117.22594 7800 ft 274 kts 134°
2026-04-26 19:39 32.78627 -117.20705 7425 ft 263 kts 101°
2026-04-26 19:39 32.78726 -117.18610 7097 ft 251 kts 73°
2026-04-26 19:39 32.79259 -117.16672 6786 ft 241 kts 73°
2026-04-26 19:40 32.79661 -117.14782 6515 ft 233 kts 80°
2026-04-26 19:40 32.79847 -117.12917 6292 ft 224 kts 88°
2026-04-26 19:40 32.79802 -117.11062 6196 ft 224 kts 97°
2026-04-26 19:40 32.79503 -117.09232 6130 ft 225 kts 105°
2026-04-26 19:41 32.79022 -117.07458 6061 ft 225 kts 111°
2026-04-26 19:41 32.78373 -117.05739 5984 ft 224 kts 119°
2026-04-26 19:41 32.77610 -117.04119 5954 ft 221 kts 117°
2026-04-26 19:41 32.77178 -117.03032 5805 ft 215 kts 112°
2026-04-26 19:42 32.76515 -117.00811 5486 ft 208 kts 107°
2026-04-26 19:42 32.76113 -116.99181 5283 ft 201 kts 106°
2026-04-26 19:42 32.75681 -116.97636 5092 ft 193 kts 115°
2026-04-26 19:42 32.74874 -116.96413 4850 ft 189 kts 144°
2026-04-26 19:43 32.73708 -116.95700 4642 ft 189 kts 160°
2026-04-26 19:43 32.72417 -116.95387 4382 ft 187 kts 180°
2026-04-26 19:43 32.71139 -116.95715 4165 ft 186 kts 204°
2026-04-26 19:43 32.70031 -116.96529 3937 ft 187 kts 221°
2026-04-26 19:44 32.69229 -116.97713 3730 ft 185 kts 244°
2026-04-26 19:44 32.68857 -116.99153 3567 ft 187 kts 262°
2026-04-26 19:44 32.68878 -117.00693 3274 ft 186 kts 283°
2026-04-26 19:44 32.69253 -117.02151 3019 ft 185 kts 288°
2026-04-26 19:45 32.69637 -117.03613 2750 ft 183 kts 286°
2026-04-26 19:45 32.69983 -117.05030 2558 ft 174 kts 286°
2026-04-26 19:45 32.70315 -117.06403 2295 ft 171 kts 286°
2026-04-26 19:45 32.70633 -117.07711 2095 ft 157 kts 286°
2026-04-26 19:46 32.70921 -117.08898 1956 ft 145 kts 286°
2026-04-26 19:46 32.71207 -117.10074 1674 ft 145 kts 286°
2026-04-26 19:46 32.71482 -117.11206 1407 ft 142 kts 286°
2026-04-26 19:46 32.71758 -117.12338 1197 ft 143 kts 286°
2026-04-26 19:47 32.72035 -117.13477 973 ft 142 kts 286°
2026-04-26 19:47 32.72220 -117.14239 825 ft 142 kts 286°
2026-04-26 19:47 32.72590 -117.15724 541 ft 141 kts 287°
2026-04-26 19:47 32.72892 -117.16849 244 ft 145 kts 288°
2026-04-26 19:48 32.73133 -117.18012 69 ft 141 kts 284°
2026-04-26 19:48 32.73369 -117.19046 21 ft 103 kts 287°
2026-04-26 19:48 32.73508 -117.19595 20 ft 51 kts 284°
2026-04-26 19:48 32.73536 -117.19774 18 ft 10 kts 253°
2026-04-26 19:49 32.73493 -117.19872 18 ft 0 kts 246°
2026-04-26 19:49 32.73490 -117.19879 18 ft 0 kts 246°
2026-04-26 19:49 32.73490 -117.19880 18 ft 1 kts 246°
2026-04-26 19:50 32.73466 -117.19890 18 ft 6 kts 164°
2026-04-26 19:50 32.73421 -117.19862 18 ft 8 kts 164°
2026-04-26 19:50 32.73385 -117.19858 18 ft 0 kts 176°